Regional Weather Roundup
Issued by NWS

Home | Current Version | Previous Version | Text Only | Print | Product List | Glossary Off
Versions: 1 2 3 4 5 6 7 8 9 10 11 12 13 14 15 16 17 18 19 20 21 22 23 24 25 26 27 28 29 30 31 32 33 34 35 36 37 38 39 40 41 42 43 44 45 46 47 48 49 50

000
ASUS45 KCYS 041410
RWRWY

WYOMING REGIONAL WEATHER ROUNDUP
NATIONAL WEATHER SERVICE CHEYENNE WY
800 AM MDT MON MAY 04 2015

NOTE:  "FAIR" INDICATES FEW OR NO CLOUDS BELOW 12,000 FEET
WITH NO SIGNIFICANT WEATHER AND/OR OBSTRUCTIONS TO VISIBILITY.

WYZ001-041500-
YELLOWSTONE NATIONAL PARK

CITY           SKY/WX    TMP DP  RH WIND       PRES   REMARKS
LK YELLOWSTONE   N/A     33  30  88 CALM      30.15R
W YELLOWSTONE  NOT AVBL

$$
WYZ002>013-054>058-071-098>099-041500-
NORTHERN WYOMING

CITY           SKY/WX    TMP DP  RH WIND       PRES   REMARKS
JACKSON        MOSUNNY   36  36 100 CALM      30.12R
CODY           FAIR      50  37  62 CALM      30.04R
GREYBULL       PTSUNNY   52  38  58 N3        30.02R
WORLAND        FAIR      52  43  71 CALM      30.02R
SHERIDAN       FAIR      51  43  74 SE15      30.02R
BUFFALO        CLOUDY    49  43  80 S14       30.07R
GILLETTE       CLOUDY    47  38  71 SE20G30   30.09R
HULETT         LGT RAIN  46  45  93 SE8       30.16S
NEWCASTLE      FAIR      45  34  65 SE17G24   30.15R

$$
WYZ014>020-022>026-101>103-041500-
CENTRAL WYOMING

CITY           SKY/WX    TMP DP  RH WIND       PRES   REMARKS
BIG PINEY      FAIR      38  35  89 CALM      30.13R
PINEDALE       FAIR      36  34  93 NW8       30.13R WCI  29
DUBOIS         FAIR      36  32  87 NW10      30.10S WCI  28
LANDER         FAIR      46  41  82 S5        30.06R
RIVERTON       FAIR      52  43  71 NW6       30.07R
CASPER         CLOUDY    47  45  93 CALM      30.07R
DOUGLAS        CLOUDY    49  41  74 SE20G26   30.09R

$$
WYZ021-027>030-104>119-041500-
SOUTHERN WYOMING

CITY           SKY/WX    TMP DP  RH WIND       PRES   REMARKS
EVANSTON       FAIR      44  38  79 E8        30.09R
KEMMERER       FAIR      41  36  81 N5        30.12R
FORT BRIDGER   SUNNY     45  43  93 SE6       30.14R
ROCK SPRINGS   FAIR      45  38  76 E7        30.10R
DIXON          FAIR      46  41  82 E3        30.12S
RAWLINS        FAIR      44  40  85 CALM      30.11R
SARATOGA       FAIR      43  37  81 E3        30.12S
LARAMIE        CLOUDY    44  41  89 S25       30.11R
CHEYENNE       CLOUDY    46  39  76 S10       30.15R
TORRINGTON     CLOUDY    50  37  61 SE14      30.13R
PINE BLUFFS    CLOUDY    46  37  71 SE7       30.16R

$$



USA.gov is the U.S. government's official web portal to all federal, state and local government web resources and services.